User: anonymous   Login
Location: Caltech
(34.1382°N, 118.1253°W)
Time: 00:43:40
(UTC-08:00)
Language:

Uribyol 2 - Orbit

View from above orbital plane
View from above orbital plane
View from above satellite
View from above satellite

Ground track
Ground track

The orbit data is extracted from the following two-line orbital elements,

1 22828U 93061F   17018.83231264 -.00000015  00000-0  11692-4 0  9997
2 22828  98.7766 341.6921 0010150  13.2663 346.8784 14.30620316184583
Epoch (UTC): 18 January 2017 19:58:31
Eccentricity: 0.0010150
inclination: 98.7766°
perigee height: 782 km
apogee height: 797 km
right ascension of ascending node: 341.6921°
argument of perigee: 13.2663°
revolutions per day: 14.30620316
mean anomaly at epoch: 346.8784°
orbit number at epoch: 18458

The dashed part of the orbit path shows where the satellite is in the earth's shadow,  

DLR